Find Starlink 34149

NORAD ID: 64140 Int'l Des: 2025-111 Owner: SPXS Country: US Constellation: starlink operational
LEOCIRCULAR

当前视图

正在加载3D地球...

About Starlink 34149

Starlink 34149 (NORAD 64140) is a starlink constellation satellite (v2 mini) launched May 24, 2025 by SPXS of US. It operates in LEO, CIRCULAR orbit with a mass of 575.00 kg.

即将过境

Passes for default location (London). Set your location on the main map for personalized predictions.

高度历史

Loading altitude history...

两行轨道根数

1 64140U 25111T 26237.97380236 .00013060 00000-0 48318-3 0 9990
2 64140 42.9974 201.8011 0001154 272.0135 88.0584 15.27586094 71352
Epoch: Aug 25, 2026 • Age: 15 hours

当前状态

高度 486.8 km
远地点 / 近地点 N/A
速度 7.62 km/s
星下点 -19.02°S, 151.05°W
发射日期 May 24, 2025
运行时间 1.2 years
类型 internet

技术详情

分类 Payload
质量 575.00 kg
干质量 530.00 kg
总质量 575.00 kg
长度 0.30 m
直径 4.10 m
跨度 29.00 m
形状 Box + pan
制造商 SPXS
平台类型 Starlink V2MO
阶段状态 In Orbit
所有者/国家 SPXS/US

Most Searched